VE1DX Weather Reports


Display with metric or nautical units.
time (UTC)temp
F
wind
direction
speed
MPH
gust
MPH
rain 1hr
in
rain 24hr
in
rain mn
in
humidity
%
barometer
mb
20260903224015 64 0.0 0.0 0.00 0.02 0.01 97 1018.4
20260903223516 64 0.0 0.0 0.00 0.02 0.01 97 1018.4
20260903223015 64 0.0 0.0 0.00 0.02 0.01 97 1018.4
20260903222516 64 0.0 0.0 0.00 0.02 0.01 97 1018.5
20260903222015 64 0.0 1.0 0.00 0.02 0.01 97 1018.5
20260903221516 64 0.0 1.0 0.00 0.02 0.01 96 1018.6
20260903221015 64 0.0 0.0 0.00 0.02 0.01 96 1018.7
20260903220515 64 0.0 1.0 0.01 0.02 0.01 96 1018.8
20260903220015 64 0.0 1.0 0.01 0.02 0.01 96 1018.8
20260903215516 64 0.0 0.0 0.01 0.02 0.01 96 1018.8
20260903215015 64 0.0 0.0 0.01 0.02 0.01 96 1018.9
20260903214515 64 0.0 0.0 0.01 0.02 0.01 96 1018.9
20260903214016 64 0.0 0.0 0.01 0.02 0.01 95 1018.9
20260903213515 64 0.0 0.0 0.01 0.02 0.01 95 1018.9
20260903213015 64 0.0 1.0 0.01 0.02 0.01 95 1019.0
20260903212515 65 0.0 0.0 0.01 0.02 0.01 94 1019.0
20260903212016 65 0.0 0.0 0.01 0.02 0.01 93 1019.0
20260903211515 65 0.0 0.0 0.01 0.02 0.01 93 1019.0
20260903211015 65 0.0 1.0 0.01 0.02 0.01 92 1019.2
20260903210515 65 0.0 2.0 0.00 0.01 0.00 91 1019.2
20260903210016 66 0.0 1.0 0.00 0.01 0.00 90 1019.2
20260903205515 66 0.0 1.0 0.00 0.01 0.00 89 1019.2
20260903205015 66 0.0 1.0 0.00 0.01 0.00 88 1019.3
20260903204515 66 0.0 1.0 0.00 0.01 0.00 87 1019.3
20260903204015 66 0.0 2.0 0.00 0.01 0.00 86 1019.3
20260903203515 66 0.0 2.0 0.00 0.01 0.00 86 1019.4
20260903203015 67 0.0 2.0 0.00 0.01 0.00 86 1019.4
20260903202515 67 0.0 0.0 0.00 0.01 0.00 86 1019.4
20260903202015 67 0.0 1.0 0.00 0.01 0.00 85 1019.6
20260903201516 67 0.0 1.0 0.00 0.01 0.00 84 1019.6
20260903201015 67 135 1.0 2.0 0.00 0.01 0.00 84 1019.6
20260903200515 67 0.0 1.0 0.00 0.01 0.00 84 1019.6
20260903200015 67 135 1.0 4.0 0.00 0.01 0.00 84 1019.7
20260903195515 67 0.0 2.0 0.00 0.01 0.00 84 1019.7
20260903195015 67 113 1.0 3.0 0.00 0.01 0.00 84 1019.8
20260903194515 67 113 1.0 2.0 0.00 0.01 0.00 84 1019.8
20260903194016 67 113 1.0 4.0 0.00 0.01 0.00 84 1019.8
20260903193515 67 113 1.0 3.0 0.00 0.01 0.00 83 1019.8
20260903193015 67 135 1.0 2.0 0.00 0.01 0.00 84 1019.9
20260903192515 67 113 1.0 4.0 0.00 0.01 0.00 83 1019.9
20260903192015 67 135 2.0 4.0 0.00 0.01 0.00 83 1020.0
20260903191515 68 113 1.0 3.0 0.00 0.01 0.00 83 1020.0
20260903191015 68 135 1.0 5.0 0.00 0.01 0.00 84 1020.0
20260903190515 68 113 1.0 5.0 0.00 0.01 0.00 83 1020.0
20260903190015 68 135 1.0 4.0 0.00 0.01 0.00 85 1020.1
20260903185515 68 135 1.0 3.0 0.00 0.01 0.00 83 1020.2
20260903185015 68 0.0 4.0 0.00 0.01 0.00 83 1020.3
20260903184515 68 0.0 1.0 0.00 0.01 0.00 84 1020.4
20260903184015 68 113 1.0 4.0 0.00 0.01 0.00 83 1020.5
20260903183516 68 135 1.0 3.0 0.00 0.01 0.00 83 1020.6
20260903183015 68 0.0 2.0 0.00 0.01 0.00 83 1020.6
20260903182515 68 113 1.0 2.0 0.00 0.01 0.00 83 1020.6
20260903182015 68 0.0 2.0 0.00 0.01 0.00 83 1020.7
20260903181515 68 0.0 3.0 0.00 0.01 0.00 82 1020.8
20260903181015 68 113 1.0 3.0 0.00 0.01 0.00 84 1020.8
20260903180515 68 135 2.0 4.0 0.00 0.01 0.00 83 1020.9
20260903180015 68 113 1.0 2.0 0.00 0.01 0.00 84 1020.9
20260903175515 67 135 1.0 3.0 0.00 0.01 0.00 84 1021.0
20260903175015 67 113 1.0 4.0 0.00 0.01 0.00 83 1021.0
20260903174515 67 113 1.0 3.0 0.00 0.01 0.00 83 1021.0
20260903174015 67 158 1.0 3.0 0.00 0.01 0.00 83 1021.0
20260903173515 67 113 1.0 3.0 0.00 0.01 0.00 83 1021.0
20260903173015 67 113 2.0 3.0 0.00 0.01 0.00 83 1021.1
20260903172515 67 158 1.0 2.0 0.00 0.01 0.00 83 1021.1
20260903172016 67 135 2.0 4.0 0.00 0.01 0.00 82 1021.2
20260903171515 67 135 2.0 5.0 0.00 0.01 0.00 81 1021.2
20260903171015 68 135 2.0 4.0 0.00 0.01 0.00 81 1021.2
20260903170515 68 135 1.0 4.0 0.00 0.01 0.00 82 1021.2
20260903170015 68 135 1.0 4.0 0.00 0.01 0.00 81 1021.2
20260903165515 68 113 1.0 5.0 0.00 0.01 0.00 81 1021.2
20260903165015 68 113 1.0 4.0 0.00 0.01 0.00 81 1021.3
20260903164515 68 135 2.0 5.0 0.00 0.01 0.00 81 1021.4
20260903164015 68 135 2.0 7.0 0.00 0.01 0.00 81 1021.4
20260903163515 68 135 2.0 5.0 0.00 0.01 0.00 81 1021.4
20260903163015 68 135 1.0 4.0 0.00 0.01 0.00 82 1021.5
20260903162515 68 135 1.0 3.0 0.00 0.01 0.00 83 1021.4
20260903162015 68 113 1.0 3.0 0.00 0.01 0.00 82 1021.5
20260903161515 68 135 1.0 5.0 0.00 0.01 0.00 83 1021.5
20260903161015 68 135 1.0 5.0 0.00 0.01 0.00 83 1021.5
20260903160515 68 135 2.0 4.0 0.00 0.01 0.00 83 1021.4
20260903160015 68 113 2.0 5.0 0.00 0.01 0.00 82 1021.5
20260903155515 68 0.0 1.0 0.00 0.01 0.00 83 1021.6
20260903155015 68 135 1.0 3.0 0.00 0.01 0.00 83 1021.6
20260903154515 68 135 1.0 8.0 0.00 0.01 0.00 84 1021.7
20260903154015 68 113 1.0 3.0 0.00 0.01 0.00 83 1021.7
20260903153515 68 0.0 2.0 0.00 0.01 0.00 84 1021.7
20260903153015 68 0.0 3.0 0.00 0.01 0.00 83 1021.8
20260903152515 68 135 1.0 3.0 0.00 0.01 0.00 84 1021.9
20260903152015 68 135 1.0 2.0 0.00 0.01 0.00 83 1021.9
20260903151515 68 0.0 3.0 0.00 0.01 0.00 84 1021.8
20260903151015 68 158 1.0 3.0 0.00 0.01 0.00 83 1021.8
20260903150515 68 135 1.0 4.0 0.00 0.01 0.00 83 1021.7
20260903150015 68 135 1.0 3.0 0.00 0.01 0.00 82 1021.8
20260903145515 68 113 2.0 5.0 0.00 0.01 0.00 83 1021.7
20260903145015 68 135 2.0 4.0 0.00 0.01 0.00 83 1021.8
20260903144515 68 135 1.0 3.0 0.00 0.01 0.00 82 1021.7
20260903144016 68 113 1.0 3.0 0.00 0.01 0.00 81 1021.8
20260903143515 68 113 2.0 5.0 0.00 0.01 0.00 82 1021.9
20260903143016 69 135 2.0 5.0 0.00 0.01 0.00 81 1021.8
20260903142515 68 113 2.0 6.0 0.00 0.01 0.00 81 1021.9
20260903142015 69 158 2.0 6.0 0.00 0.01 0.00 81 1022.0
20260903141515 68 113 2.0 6.0 0.00 0.01 0.00 83 1022.0
20260903141016 68 135 2.0 5.0 0.00 0.01 0.00 83 1022.1
20260903140515 68 135 1.0 4.0 0.00 0.01 0.00 84 1022.1
20260903140015 68 158 1.0 3.0 0.00 0.01 0.00 86 1022.2
20260903135515 67 0.0 4.0 0.00 0.01 0.00 88 1022.2
20260903135015 67 113 1.0 3.0 0.00 0.01 0.00 87 1022.2
20260903134515 67 135 2.0 6.0 0.00 0.01 0.00 88 1022.1
20260903134015 66 113 1.0 2.0 0.00 0.01 0.00 89 1022.1
20260903133515 66 135 1.0 3.0 0.00 0.01 0.00 90 1022.1
20260903133015 66 113 1.0 3.0 0.00 0.01 0.00 90 1022.2
20260903132515 66 0.0 1.0 0.00 0.01 0.00 91 1022.2
20260903132015 65 0.0 1.0 0.00 0.01 0.00 91 1022.2
20260903131515 65 0.0 2.0 0.00 0.01 0.00 91 1022.2
20260903131015 65 135 1.0 6.0 0.00 0.01 0.00 91 1022.1
20260903130515 65 0.0 1.0 0.00 0.01 0.00 91 1022.1
20260903130015 65 0.0 2.0 0.00 0.01 0.00 92 1022.1
20260903125515 65 0.0 3.0 0.00 0.01 0.00 93 1022.0
20260903125015 65 0.0 1.0 0.00 0.01 0.00 95 1022.0
20260903124515 65 0.0 0.0 0.00 0.01 0.00 96 1022.0
20260903124015 65 0.0 1.0 0.00 0.01 0.00 97 1022.1
20260903123515 65 0.0 1.0 0.00 0.01 0.00 98 1022.1
20260903123015 65 0.0 1.0 0.00 0.01 0.00 98 1022.1
20260903122515 65 0.0 1.0 0.00 0.01 0.00 99 1022.2
20260903122015 64 0.0 1.0 0.00 0.01 0.00 100 1022.2
20260903121515 64 0.0 1.0 0.00 0.01 0.00 100 1022.2
20260903121015 64 0.0 1.0 0.00 0.01 0.00 100 1022.3
20260903120515 63 0.0 1.0 0.00 0.01 0.00 100 1022.4
20260903120015 63 0.0 0.0 0.00 0.01 0.00 100 1022.5
20260903115516 63 0.0 0.0 0.00 0.01 0.00 100 1022.5
20260903115015 63 0.0 0.0 0.00 0.01 0.00 100 1022.5
20260903114515 63 0.0 0.0 0.00 0.01 0.00 100 1022.6
20260903114015 62 0.0 0.0 0.00 0.01 0.00 100 1022.5
20260903113515 62 0.0 0.0 0.00 0.01 0.00 100 1022.6
20260903113015 62 0.0 0.0 0.00 0.01 0.00 100 1022.5
20260903112515 62 0.0 0.0 0.00 0.01 0.00 100 1022.5
20260903112015 62 0.0 0.0 0.00 0.01 0.00 100 1022.5
20260903111516 61 0.0 0.0 0.00 0.01 0.00 100 1022.5
20260903111015 61 0.0 0.0 0.00 0.01 0.00 100 1022.5
20260903110515 61 0.0 0.0 0.00 0.01 0.00 100 1022.5
20260903110015 61 0.0 0.0 0.00 0.01 0.00 100 1022.6
20260903105515 61 0.0 0.0 0.00 0.01 0.00 100 1022.6
20260903105015 61 0.0 0.0 0.00 0.01 0.00 100 1022.6
20260903104515 61 0.0 0.0 0.00 0.01 0.00 100 1022.6
20260903104015 60 0.0 0.0 0.00 0.01 0.00 100 1022.6
20260903103515 60 0.0 0.0 0.00 0.01 0.00 100 1022.6
20260903103015 60 0.0 0.0 0.00 0.01 0.00 100 1022.5
20260903102515 60 0.0 0.0 0.00 0.01 0.00 100 1022.5
20260903102015 60 0.0 0.0 0.00 0.01 0.00 100 1022.5
20260903101515 60 0.0 0.0 0.00 0.01 0.00 100 1022.5
20260903101015 60 0.0 0.0 0.00 0.01 0.00 100 1022.5
20260903100515 60 0.0 0.0 0.00 0.01 0.00 100 1022.4
20260903100015 60 0.0 0.0 0.00 0.01 0.00 100 1022.4
20260903095515 60 0.0 0.0 0.00 0.01 0.00 100 1022.5
20260903095015 60 0.0 0.0 0.00 0.01 0.00 100 1022.6
20260903094515 60 0.0 0.0 0.00 0.01 0.00 100 1022.5
20260903094015 60 0.0 0.0 0.00 0.01 0.00 100 1022.5
20260903093515 60 0.0 0.0 0.00 0.01 0.00 100 1022.5
20260903093015 60 0.0 0.0 0.00 0.01 0.00 100 1022.5
20260903092516 60 0.0 0.0 0.00 0.01 0.00 100 1022.4
20260903092015 60 0.0 0.0 0.00 0.01 0.00 100 1022.5
20260903091515 59 0.0 0.0 0.00 0.01 0.00 100 1022.5
20260903091015 59 0.0 0.0 0.00 0.01 0.00 100 1022.6
20260903090515 59 0.0 0.0 0.00 0.01 0.00 100 1022.6
20260903090015 59 0.0 0.0 0.00 0.01 0.00 100 1022.7
20260903085515 59 0.0 0.0 0.00 0.01 0.00 100 1022.6
20260903085015 59 0.0 0.0 0.00 0.01 0.00 100 1022.5
20260903084515 59 0.0 0.0 0.00 0.01 0.00 100 1022.5
20260903084015 59 0.0 0.0 0.00 0.01 0.00 100 1022.6
20260903083515 59 0.0 0.0 0.00 0.01 0.00 100 1022.5
20260903083015 59 0.0 0.0 0.00 0.01 0.00 100 1022.5
20260903082515 59 0.0 0.0 0.00 0.01 0.00 100 1022.4
20260903082015 60 0.0 0.0 0.00 0.01 0.00 100 1022.5
20260903081515 60 0.0 0.0 0.00 0.01 0.00 100 1022.5
20260903081015 60 0.0 0.0 0.00 0.01 0.00 100 1022.6
20260903080515 60 0.0 0.0 0.00 0.01 0.00 100 1022.6
20260903080015 60 0.0 0.0 0.00 0.01 0.00 100 1022.6
20260903075517 60 0.0 0.0 0.00 0.01 0.00 100 1022.6
20260903075018 60 0.0 0.0 0.00 0.01 0.00 100 1022.6
20260903074517 60 0.0 0.0 0.00 0.01 0.00 100 1022.7
20260903074017 60 0.0 0.0 0.00 0.01 0.00 100 1022.8
20260903073517 60 0.0 0.0 0.00 0.01 0.00 100 1022.8
20260903073017 60 0.0 0.0 0.00 0.01 0.00 100 1022.9
20260903072517 60 0.0 0.0 0.00 0.01 0.00 100 1022.9
20260903072017 60 0.0 0.0 0.00 0.01 0.00 100 1022.8
20260903071517 60 0.0 0.0 0.00 0.01 0.00 100 1022.8
20260903071017 60 0.0 0.0 0.00 0.01 0.00 100 1022.8
20260903070517 59 0.0 0.0 0.00 0.01 0.00 100 1022.7
20260903070015 59 0.0 0.0 0.00 0.01 0.00 100 1022.7
20260903065515 59 0.0 0.0 0.00 0.01 0.00 100 1022.8
20260903065015 60 0.0 0.0 0.00 0.01 0.00 100 1022.8
20260903064515 59 0.0 0.0 0.00 0.01 0.00 100 1022.9
20260903064015 59 0.0 0.0 0.00 0.01 0.00 100 1022.9
20260903063515 59 0.0 0.0 0.00 0.01 0.00 100 1022.9
20260903063016 59 0.0 0.0 0.00 0.01 0.00 100 1022.9
20260903062515 59 0.0 0.0 0.00 0.01 0.00 100 1022.9
20260903062015 59 0.0 0.0 0.00 0.01 0.00 100 1022.8
20260903061515 58 0.0 1.0 0.00 0.01 0.00 100 1022.8
20260903061015 58 0.0 0.0 0.00 0.01 0.00 100 1022.7
20260903060516 58 0.0 0.0 0.00 0.01 0.00 100 1022.8
20260903060015 58 0.0 0.0 0.00 0.01 0.00 100 1022.8
20260903055515 58 0.0 0.0 0.00 0.01 0.00 100 1022.8
20260903055015 58 0.0 0.0 0.00 0.01 0.00 100 1022.7
20260903054515 58 0.0 0.0 0.00 0.01 0.00 100 1022.6
20260903054017 58 0.0 0.0 0.00 0.01 0.00 100 1022.5
20260903053517 58 0.0 0.0 0.00 0.01 0.00 100 1022.6
20260903053015 58 0.0 0.0 0.00 0.01 0.00 100 1022.6
20260903052515 58 0.0 0.0 0.00 0.01 0.00 100 1022.6
20260903052015 58 0.0 0.0 0.00 0.01 0.00 100 1022.7
20260903051515 58 0.0 0.0 0.00 0.01 0.00 100 1022.8
20260903051015 58 0.0 0.0 0.00 0.01 0.00 100 1022.9
20260903050517 58 0.0 0.0 0.00 0.01 0.00 100 1022.9
20260903050017 58 0.0 0.0 0.00 0.01 0.00 100 1022.9
20260903045518 58 0.0 0.0 0.00 0.01 0.00 100 1022.9
20260903045017 58 0.0 0.0 0.00 0.01 0.00 100 1022.8
20260903044517 58 0.0 0.0 0.00 0.01 0.00 100 1022.9
20260903044017 58 0.0 0.0 0.00 0.01 0.00 100 1022.9
20260903043517 59 0.0 0.0 0.00 0.01 0.00 100 1023.0
20260903043017 59 0.0 0.0 0.00 0.01 0.00 100 1023.0
20260903042517 59 0.0 0.0 0.00 0.01 0.00 100 1023.0
20260903042017 59 0.0 0.0 0.00 0.01 0.00 100 1023.0
20260903041517 59 0.0 0.0 0.00 0.01 0.00 100 1022.9
20260903041017 60 0.0 0.0 0.00 0.01 0.00 100 1023.0
20260903040517 60 0.0 0.0 0.00 0.01 0.00 100 1023.0
20260903040017 60 0.0 0.0 0.00 0.01 0.00 100 1023.1
20260903035517 60 0.0 0.0 0.00 0.01 0.00 100 1023.1
20260903035017 61 0.0 0.0 0.00 0.01 0.00 100 1023.2
20260903034517 61 0.0 0.0 0.00 0.01 0.00 100 1023.1
20260903034017 61 0.0 0.0 0.00 0.01 0.00 100 1023.1
20260903033517 61 0.0 0.0 0.00 0.01 0.00 100 1023.0
20260903033017 61 0.0 0.0 0.00 0.01 0.00 100 1022.9
20260903032517 61 0.0 0.0 0.00 0.01 0.00 100 1022.9
20260903032017 61 0.0 0.0 0.00 0.01 0.00 100 1022.9
20260903031517 62 0.0 0.0 0.00 0.01 0.00 100 1022.8
20260903031017 62 0.0 0.0 0.00 0.01 0.00 100 1022.8
20260903030517 62 0.0 0.0 0.00 0.01 0.00 100 1022.9
20260903030017 62 0.0 0.0 0.00 0.01 0.01 100 1022.8
20260903025516 62 0.0 0.0 0.00 0.01 0.01 100 1022.7
20260903025015 62 0.0 0.0 0.00 0.01 0.01 100 1022.7
20260903024515 62 0.0 0.0 0.00 0.01 0.01 99 1022.7
20260903024016 62 0.0 0.0 0.00 0.01 0.01 99 1022.8
20260903023516 62 0.0 0.0 0.00 0.01 0.01 99 1022.8
20260903023016 62 0.0 0.0 0.00 0.01 0.01 99 1022.9
20260903022516 62 0.0 0.0 0.00 0.01 0.01 99 1022.9
20260903022016 62 0.0 0.0 0.00 0.01 0.01 99 1022.8
20260903021515 62 0.0 0.0 0.01 0.01 0.01 99 1022.8
20260903021016 62 0.0 0.0 0.01 0.01 0.01 99 1022.9
20260903020515 62 0.0 0.0 0.01 0.01 0.01 99 1022.9
20260903020015 62 0.0 0.0 0.01 0.01 0.01 99 1022.9
20260903015515 62 0.0 0.0 0.01 0.01 0.01 99 1023.0
20260903015016 62 0.0 0.0 0.01 0.01 0.01 98 1022.9
20260903014515 62 0.0 0.0 0.01 0.01 0.01 98 1023.0
20260903014016 62 0.0 0.0 0.01 0.01 0.01 98 1023.1
20260903013516 62 0.0 0.0 0.01 0.01 0.01 98 1023.1
20260903013016 62 0.0 0.0 0.01 0.01 0.01 98 1023.2
20260903012515 63 0.0 0.0 0.01 0.01 0.01 98 1023.2
20260903012015 63 0.0 1.0 0.01 0.01 0.01 98 1023.3
20260903011516 63 0.0 0.0 0.00 0.00 0.00 97 1023.4
20260903011016 63 0.0 0.0 0.00 0.00 0.00 97 1023.4
20260903010515 63 0.0 0.0 0.00 0.00 0.00 97 1023.4
20260903010016 63 0.0 0.0 0.00 0.00 0.00 97 1023.4
20260903005516 63 0.0 0.0 0.00 0.00 0.00 96 1023.3
20260903005016 63 0.0 0.0 0.00 0.00 0.00 96 1023.3
20260903004516 63 0.0 0.0 0.00 0.00 0.00 96 1023.4
20260903004015 63 0.0 0.0 0.00 0.00 0.00 96 1023.4
20260903003515 63 0.0 0.0 0.00 0.00 0.00 96 1023.5
20260903003015 63 0.0 0.0 0.00 0.00 0.00 96 1023.4
20260903002516 63 0.0 0.0 0.00 0.00 0.00 96 1023.3
20260903002016 63 0.0 0.0 0.00 0.00 0.00 96 1023.3
20260903001516 63 0.0 0.0 0.00 0.00 0.00 96 1023.4
20260903001015 63 0.0 0.0 0.00 0.00 0.00 96 1023.2
20260903000515 63 0.0 0.0 0.00 0.00 0.00 95 1023.2
20260903000016 63 0.0 0.0 0.00 0.00 0.00 95 1023.1
20260902235515 63 0.0 0.0 0.00 0.00 0.00 95 1023.1
20260902235016 64 0.0 0.0 0.00 0.00 0.00 95 1023.1
20260902234516 64 0.0 0.0 0.00 0.00 0.00 95 1023.2
20260902234015 64 0.0 0.0 0.00 0.00 0.00 94 1023.2
20260902233515 64 0.0 0.0 0.00 0.00 0.00 94 1023.2
20260902233016 64 0.0 0.0 0.00 0.00 0.00 94 1023.1
20260902232516 64 0.0 0.0 0.00 0.00 0.00 94 1023.0
20260902232016 64 0.0 0.0 0.00 0.00 0.00 94 1022.9
20260902231516 64 0.0 0.0 0.00 0.00 0.00 93 1022.9
20260902231016 65 0.0 0.0 0.00 0.00 0.00 93 1022.9
20260902230515 65 0.0 0.0 0.00 0.00 0.00 93 1022.9
20260902230015 65 0.0 0.0 0.00 0.00 0.00 93 1022.9
20260902225516 65 0.0 0.0 0.00 0.00 0.00 92 1022.9
20260902225016 65 0.0 0.0 0.00 0.00 0.00 91 1023.0
20260902224516 65 0.0 0.0 0.00 0.00 0.00 91 1022.9